Regional Weather Roundup
Issued by NWS

Home | Current Version | Previous Version | Graphics & Text | Print | Product List | Glossary Off
Versions: 1 2 3 4 5 6 7 8 9 10 11 12 13 14 15 16 17 18 19 20 21 22 23 24 25 26 27 28 29 30 31 32 33 34 35 36 37 38 39 40 41 42 43 44 45 46 47 48 49 50

000
ASUS43 KDTX 052310
RWRMI
MICHIGAN HOURLY REGIONAL WEATHER ROUNDUP
NATIONAL WEATHER SERVICE DETROIT/PONTIAC MI
600 PM EST THU MAR 05 2015

NOTE: "FAIR" INDICATES FEW OR NO CLOUDS BELOW 12,000 FEET WITH NO
SIGNIFICANT WEATHER AND/OR OBSTRUCTION TO VISIBILITY.

MIZ047>049-052>055-059>063-066>070-074>076-081>083-060000-
SOUTHEAST LOWER MICHIGAN

CITY           SKY/WX    TMP DP  RH WIND       PRES   REMARKS
ADRIAN         PTCLDY    17   0  47 NW5       30.45R WCI  10
ALMA           CLOUDY    15   1  55 W8        30.43R WCI   4
ANN ARBOR      PTCLDY    16  -1  47 W13       30.43R WCI   2
BAD AXE        CLEAR     11  -3  55 SW7       30.40S WCI   0
CARO           CLEAR     13  -2  52 SW6       30.41R WCI   4
DETROIT CITY   CLEAR     18  -2  41 VRB7      30.44R WCI   9
DETROIT        PTCLDY    18  -1  43 W9        30.45R WCI   7
FLINT          CLEAR     13  -2  51 W8        30.43R WCI   2
GROSSE ILE     CLEAR     18  -4  38 NW7       30.43R WCI   8
HILLSDALE      MOCLDY    17   2  52 W9        30.41R WCI   5
HOWELL         CLEAR     13  -1  52 NW6       30.41R WCI   4

CITY           SKY/WX    TMP DP  RH WIND       PRES   REMARKS
JACKSON        FAIR      16   0  49 NW7       30.41R WCI   6
LAMBERTVILLE   PTCLDY    19   1  45 NW3       30.46R
LANSING        CLEAR     15   0  51 W8        30.43R WCI   4
LAPEER         FAIR      13  -4  46 W7        30.42R WCI   3
MASON          CLEAR     15   1  52 NW9       30.42R WCI   3
MONROE         CLEAR     18   1  49 W7        30.43R WCI   8
MT. CLEMENS    CLEAR     15  -2  46 NW10      30.41R WCI   3
PONTIAC        PTCLDY    13  -2  51 NW9       30.41R WCI   1
PORT HOPE        N/A     11  -5  48 VRB3      30.39R
PORT HURON     CLEAR     12  -6  44 NW7       30.44R WCI   2
TRI CITIES     CLEAR     16   0  49 SW8       30.42R WCI   5
TROY           CLEAR     17  -4  38 W9        30.46R WCI   6
SAGINAW HB     CLEAR     16   1  53 W10       30.42R WCI   3
$$
MIZ043>046-050>051-056>058-064>065-071>073-077>080-060000-
SOUTHWEST LOWER MICHIGAN

CITY           SKY/WX    TMP DP  RH WIND       PRES   REMARKS
BATTLE CREEK   CLEAR     18   1  47 N9        30.43R WCI   7
BENTON HARBOR  CLOUDY    15   6  67 W9        30.49R WCI   3
BIG RAPIDS     MOCLDY    14   2  59 W8        30.39S WCI   2
COLDWATER      CLOUDY    18   2  50 W9        30.43R WCI   7
FREMONT        FAIR      12  -1  55 NW7       30.44R WCI   2
HOLLAND        MOCLDY    14   3  61 W10       30.48R WCI   1
GRAND RAPIDS   MOCLDY    14   3  61 W13       30.45R WCI   0
IONIA          CLOUDY    17   5  60 W13       30.42R WCI   3
KALAMAZOO      FAIR      17   3  54 NW14      30.44R WCI   3
LUDINGTON      CLOUDY    13   3  63 SW6       30.45S WCI   4
MARSHALL       PTCLDY    17   1  50 W9        30.42R WCI   5
MOUNT PLEASANT CLOUDY    16   1  52 W6        30.41R WCI   7
MUSKEGON       MOCLDY    13   2  61 W9        30.47S WCI   1
SOUTH HAVEN    CLOUDY    16   8  69 NW6       30.48S WCI   8
$$
MIZ016>042-060000-
NORTHERN LOWER MICHIGAN

CITY           SKY/WX    TMP DP  RH WIND       PRES   REMARKS
ALPENA         CLEAR     15  -7  37 W6        30.38R WCI   6
BEAVER ISLAND  CLEAR      9  -1  63 SW8       30.38F WCI  -3
BELLAIRE       CLOUDY    12   1  61 W5        30.42S WCI   4
CADILLAC       MOCLDY     9   0  66 W9        30.35R WCI  -4
CHARLEVOIX     CLOUDY     9   2  75 CALM      30.43S
FRANKFORT      CLOUDY    12   4  68 SW6       30.43S WCI   3
GAYLORD        PTCLDY     8  -3  61 W7        30.32R WCI  -3
GRAYLING       CLOUDY    12   0  58 W8        30.36R WCI   0
HARBOR SPRINGS PTCLDY     7  -1  69 W3        30.40R
HOUGHTON LAKE  CLOUDY    12   0  58 W7        30.35R WCI   1
MANISTEE       CLOUDY    12   1  62 SW7       30.44S WCI   2
OSCODA         CLEAR     14   4  64 NE3       30.36S
PELLSTON       CLEAR      9  -3  58 W8        30.39S WCI  -3
ROGERS CITY    CLEAR     12  -3  50 W10       30.38S WCI  -1
TRAVERSE CITY  MOCLDY    11   1  64 W8        30.41R WCI  -1
$$
MIZ007>008-015-060000-
EASTERN UPPER MICHIGAN

CITY           SKY/WX    TMP DP  RH WIND       PRES   REMARKS
KINROSS        CLOUDY     9   0  66 N3        30.34S
MACKINAC ISLAN CLEAR      7   0  70 SW12G18   30.37S WCI  -8
NEWBERRY       CLEAR     11  -4  51 W7        30.32S WCI   0
S. S. MARIE    CLEAR      8  -4  58 NW8       30.34S WCI  -4
MUNISING         N/A      5  -5  63 NW5       30.34S WCI  -4
$$
MIZ004>006-011>014-085-060000-
CENTRAL UPPER MICHIGAN

CITY           SKY/WX    TMP DP  RH WIND       PRES   REMARKS
MANISTIQUE     CLEAR     13  -2  51 SW6       30.34S WCI   4
ESCANABA       CLEAR     12   1  62 S10       30.36F WCI  -1
MENOMINEE      CLEAR     16  -6  38 W6        30.37S WCI   7
SAWYER-GWINN   CLEAR     14  -6  41 SW5       30.27S WCI   6
$$
MIZ001>003-009>011-084-060000-
WESTERN UPPER MICHIGAN

CITY           SKY/WX    TMP DP  RH WIND       PRES   REMARKS
IRON MOUNTAIN  CLEAR     16 -10  31 W8        30.28S WCI   5
HOUGHTON       CLEAR      9  -6  50 W15       30.26F WCI  -8
COPPER HARBOR    N/A     11  -9  40 VRB6      30.29F WCI   1
IRONWOOD       CLEAR     14  -9  34 SW12      30.26S WCI   0
$$

ABBREVIATIONS USED IN REMARKS
   TC - TEMPERATURE IN CELSIUS
  WCI - WIND CHILL INDEX
   HX - HEAT INDEX
  VSB - VISIBILITY



USA.gov is the U.S. government's official web portal to all federal, state and local government web resources and services.